CamptonHillsWeather.com

Find the Weather for any City, State  
or Zipcode, or Country:

Campton Hills, IL Weather
Local Radar

Local Radar

Graphs, Details
Graphs and Gauges
Detailed Weather
Detailed Reports
Ajax Version (old)
Central Kane Co Summary
Davis Current Weather Graphs
Davis 24 Hour Weather History

CW3778 Data

Weather Underground
Maps
Temperature
Heat Index
Windchill
Humidity
Radar
Dew Point
Wind
Visibility
Visible Satellite
Satellite
Fronts
Snow Depth
Jet Stream
Flight Rules
Forecast Maps
Temperature Forecast
Maximum Temperature Forecast
Minimum Temperature Forecast
Dewpoint Forecast
Prevalent Weather
12Hr Probability of Precip.
Sky Cover
Health Maps
UV Forecast
Air Quality
Peak Air Quality Index
Weather Station
Davis Instruments Vantage Pro
Current Conditions [Select Refresh to Update]

Updated: 2:49am on 8/19/16

(location)
Currently:
86.4F

Clear
Scattered Clouds

High: 86.4 F< 
(2:48am
Low: 77.4 F 
(12:00am)
Wind: SW 0 mph
Calm
Gust: 4 mph
Today's High Wind: 6 mph (2:18am)
Humidity: 69%
Pressure: 29.85 in  (Steady
Pressure Rate: -0.016 in/hr
Dew Point: 75.0F
Wind Chill: 86.4 F
Heat Index (feels like): 95.6 F
Comfort Level: Warm
Temperature Rate:  2.70F/hr
 
5 Day Forecast
 
Sun Mon Tue Wed Thu
Clear Clear Clear Clear Clear
Mostly Cloudy Partly Cloudy Mostly Cloudy Chance T-storms Chance T-storms
82 84 87 89 90
60 64 69 71 69

Records and Normals
 
Temperature Forecast Normal Record
High 82 84 90
(2001)
Low 60 62 48
(1997)
 
Links
 
 
Weather Advisories
Full Advisory Text...
Weather Map

Web Cam

Almanac
 
Sunrise:  
6:08am
Moonrise: 
8:39pm

Moon Phase:
98%

Sunset: 
7:49pm
Moonset:  
7:26am
 Star Chart...
Rainfall Totals
Hourly Rain 0.00 in
Daily Rain: 0.00 in
Monthly Rain: 1.09 in
Yearly Rain: 22.20 in
Normal Rain, month to date: 0.12 in
Normal Rain, year to date: 23.26 in
Link to Village of Campton Hills Map

Link to Counties of Illinois Map

Local Weather Exchange Network
Station ID City 
(Click for Map Location)
Neighborhood 
(Click for History)
Last Update (Date & Time) Temperature
 ()
Dew
Point ()
Humidity 
(%)
Wind 
(mph)
from the Wind Gust 
(mph) 
Pressure(in) Hourly
Rain(in)
KILSAINT20 Saint Charles Knoll Creek Drive 08/06 17:04:58 79.7 67.0 64 0 North 0 29.92 0.00
KILSAINT17 Saint Charles Glen Oak Lane 08/06 17:12:25 84.9 64.0 49 0 North 0 29.96 0.00
KILSAINT10 Saint Charles Saint Charles Burr Road 08/06 16:58:56 88.3 63.0 43 4 ENE 0 29.95 0.00
KILSTCHA10 St. Charles Hunt Club 08/06 17:13:13 84.4 39.0 20 0 NE 2 29.96 0.00
KILWAYNE4 Wayne Hampton Course 08/06 17:11:48 78.1 66.0 65 0 North 0 29.96 0.00
KILCAMPT3 Campton Hills Campton Hills 08/06 16:52:56 83.4 57.0 41 0 NNW 8 29.95 0.00
KILSOUTH10 South Elgin East Thornwood Drive 08/06 17:04:45 87.8 64.0 44 0 North 0 29.96 0.00
KILSAINT9 Saint Charles Fox Chase 08/06 17:13:42 77.4 62.0 60 0 WSW 0 29.99 0.00
KILGENEV6 Geneva Dover Ridge 08/06 17:14:10 81.0 61.0 50 7 WNW 7 29.92 0.00
KILELBUR18 Elburn Elodie Drive 08/06 17:11:25 81.1 65.0 57 0 North 0 29.96 0.00
KILGENEV10 Geneva Southampton Drive 08/06 17:13:44 79.0 66.0 63 0 North 0 29.96 0.00
KILSTCHA8 St. Charles Ronzheimer Ave. & S. Tyler Rd. 08/06 17:13:42 79.6 61.0 53 0 NNE 5 29.91 0.00
KILGENEV18 Geneva downtown 08/06 17:13:38 87.0 63.0 45 2 WNW 3 29.92 0.00
KILGENEV3 Geneva Mill Creek (Blackberry Way) 08/06 17:13:36 82.8 63.0 51 2 North 15 29.91 0.00
KILSTCHA1 St Charles CamptonHillsWeather.com Central Kane County 08/06 15:31:02 82.0 63.0 53 1 WSW 3 29.97 0.00
KILGENEV17 Geneva Geneva 08/06 17:04:20 81.0 65.0 57 0 North 0 29.96 0.00
KILGENEV8 Geneva Alexander Drive 08/06 17:11:46 52.0 44.0 73 0 North 0 29.96 0.00
KILWAYNE7 Wayne Honey Hill 08/06 17:13:13 82.0 67.0 60 0 North 0 30.11 0.00
KILGENEV2 Geneva Mill Creek 08/06 17:00:40 80.5 61.0 52 1 WNW 10 29.96 0.00
KILBATAV13 Batavia Blackhawk Dr, Batavia 08/06 17:13:11 80.1 60.0 50 2 West 2 29.99 0.00
KILELBUR23 Elburn Elburn, IL 08/06 16:45:37 82.8 62.0 50 3 NW 0 29.92 0.00
KILELBUR11 Elburn Cheval de Selle 08/06 17:14:01 82.9 61.0 48 9 WNW 0 29.94 0.00
KILBATAV7 Batavia Charleston Street 08/06 17:12:48 87.8 68.0 51 0 North 0 30.04 0.00
KILBATAV16 Batavia Park Street 08/06 17:13:22 89.8 62.0 40 5 North 0 29.92 0.00
KILELBUR13 Elburn Hicks Drive 08/06 17:10:34 91.9 66.0 42 0 North 0 29.83 0.00
KILBATAV6 Batavia Tri Cities on the Fox River 2 08/06 17:00:14 77.2 57.0 50 0 SE 0 30.03 0.00
KILBATAV1 Batavia Tri-Cities on the Fox River 08/06 17:13:36 81.8 59.0 46 0 West 0 29.94 0.00
KILELGIN16 Elgin Providence Subdivision 08/06 17:09:39 85.8 62.0 45 5 NNE 0 29.70 0.00
KILELBUR10 Elburn Prairie Valley North 08/06 17:13:21 79.9 62.0 54 2 NW 4 29.96 0.00
KILELGIN20 Elgin Williamsburg Drive 08/06 17:04:02 79.9 65.0 60 0 North 0 29.96 0.00
KILELBUR15 Elburn East North Street 08/06 17:04:20 99.3 64.0 31 0 North 0 29.82 0.00
KILBATAV10 Batavia Deerpath Road 08/06 17:11:47 80.8 64.0 56 0 North 0 29.96 0.00
KILELBUR9 Elburn Griffith Avenue 08/06 17:11:56 86.5 67.0 51 0 North 0 29.19 0.00
KILELBUR5 Elburn Prairie Highlands 08/06 17:10:15 80.7 63.0 56 2 NNW 10 29.94 0.00
KDPA Chicago DuPage Official Station 08/06 16:52:00 81.0 59.0 47 12 NNW --- 29.96 ---
KARR Aurora Official Station 08/06 16:52:00 81.0 62.0 52 12 NNW --- 29.97 ---
KDKB DeKalb Official Station 08/06 16:55:00 79.0 61.0 55 8 NW --- 30.00 ---
KORD Chicago Official Station 08/06 16:51:00 82.0 56.0 41 8 North --- 29.95 ---
Full Advisory Text
No Warnings

Ambient Weather and Weather Underground
 Never base important decisions on this or any weather information obtained from the Internet
Updated Automatically by Ambient Weather's Virtual Weather Station  V13.01